Estación municipal de Roda de Ter (Osona, Plana de Vic)

Consulta los datos en tiempo real de la estación municipal de Roda de Ter





Hora UTC 15:40
Temperatura 16.5 ºC
Humedad 73.9 %
Pluja 2.4 mm
Velocidad viento 10.0 km/h
Dirección viento S

Webcam

Datos diarios 2026-05-05



Hora UTC (invierno +1h; verano +2h)
Temperatura (ºC) Humedad (%) Velocidad viento (km/h) Precipitación (mm)
Hora UTC Aire Humedad Vel. Dir. Vel. Max Dir. Intent. máx 5 min.
00:05 8.5 100.0 0.7 SE 0.7 SE 0.0
00:10 8.8 100.0 0.0 NNE 0.0 SE 0.0
00:15 8.9 100.0 0.0 NNE 0.0 SE 0.0
00:20 9.2 100.0 0.0 NNE 0.0 ESE 0.0
00:25 9.3 100.0 0.0 ESE 1.1 ESE 0.0
00:30 9.2 100.0 0.0 ESE 1.1 ESE 0.0
00:35 9.3 100.0 0.1 ESE 2.1 ESE 0.0
00:40 9.3 100.0 2.9 ESE 4.2 ESE 0.0
00:45 9.4 100.0 1.9 ESE 4.2 ESE 0.0
00:50 9.5 100.0 0.0 NNE 0.0 ESE 0.0
00:55 9.3 100.0 0.0 E 1.1 E 0.1
01:00 9.2 100.0 0.3 E 2.1 E 0.0
01:05 9.1 100.0 0.0 NNE 0.0 E 0.0
01:10 9.0 100.0 0.0 NNE 0.0 E 0.0
01:15 9.1 100.0 1.4 E 3.5 E 0.0
01:20 9.2 100.0 0.4 ENE 3.9 NNW 0.0
01:25 9.2 100.0 3.0 NNW 4.9 NNW 0.0
01:30 9.2 100.0 4.0 NNW 5.6 NW 0.0
01:35 9.1 100.0 4.0 NNW 6.4 NW 0.0
01:40 9.0 100.0 2.1 N 4.2 NNW 0.0
01:45 9.0 100.0 1.0 N 3.5 N 0.0
01:50 9.0 100.0 0.0 N 1.4 N 0.0
01:55 9.0 100.0 1.7 NNE 4.9 NNE 0.0
02:00 9.0 100.0 1.1 NE 3.2 NE 0.0
02:05 8.9 100.0 1.6 NE 3.9 NE 0.0
02:10 8.9 100.0 1.9 NE 5.3 NE 0.0
02:15 8.9 100.0 2.3 NE 4.6 NE 0.0
02:20 9.0 100.0 0.6 ENE 2.8 ENE 0.0
02:25 9.1 100.0 0.4 NE 2.8 NE 0.0
02:30 9.2 100.0 0.6 ENE 2.5 ENE 0.0
02:35 9.2 100.0 1.7 ENE 4.6 ENE 0.0
02:40 9.3 100.0 2.1 ENE 5.3 E 0.0
02:45 9.3 100.0 1.0 ENE 3.2 ENE 0.0
02:50 9.3 100.0 0.1 E 1.8 E 0.0
02:55 9.3 100.0 0.0 NNE 0.0 E 0.0
03:00 9.3 100.0 0.0 NNE 0.0 E 0.0
03:05 9.3 100.0 0.0 NNE 0.0 E 0.0
03:10 9.3 100.0 1.0 E 2.8 E 0.0
03:15 9.2 100.0 3.7 ESE 7.1 SSE 0.0
03:20 9.1 100.0 5.5 SSE 6.7 SSE 0.0
03:25 9.1 100.0 3.4 SSE 5.6 S 0.0
03:30 9.1 100.0 2.3 SSE 3.5 SSE 0.0
03:35 9.0 100.0 2.0 SSE 2.8 SSE 0.0
03:40 9.0 100.0 0.5 SSE 2.5 SSE 0.0
03:45 9.0 100.0 0.7 S 2.1 S 0.0
03:50 8.9 100.0 2.5 S 4.6 S 0.0
03:55 8.9 100.0 2.8 SSE 4.9 S 0.0
04:00 9.0 100.0 2.6 ENE 4.9 ENE 0.0
04:05 9.1 100.0 1.1 NE 3.9 NE 0.0
04:10 9.1 100.0 0.5 NE 2.1 NE 0.0
04:15 9.0 100.0 0.2 NE 2.5 NE 0.0
04:20 9.0 100.0 1.5 NNW 3.2 NNW 0.0
04:25 8.8 100.0 1.3 N 2.8 N 0.0
04:30 8.8 100.0 0.8 NNW 2.1 N 0.0
04:35 8.8 100.0 0.1 NNW 1.1 NNW 0.0
04:40 8.8 100.0 0.0 NNE 0.0 NNW 0.0
04:45 8.8 100.0 0.0 NNE 0.0 NNW 0.0
04:50 8.8 100.0 2.5 SSW 5.3 SSW 0.0
04:55 8.8 100.0 3.7 S 6.4 SSW 0.0
05:00 8.7 100.0 4.4 SSW 6.7 SSW 0.0
05:05 8.6 100.0 3.8 SSW 6.4 SSW 0.0
05:10 8.5 100.0 3.6 SSW 6.0 SW 0.0
05:15 8.5 100.0 3.9 SSW 7.4 S 0.1
05:20 8.4 100.0 4.3 SSW 8.8 SSW 0.0
05:25 8.3 100.0 5.6 SSW 7.8 SW 0.0
05:30 8.3 100.0 4.3 SSW 7.1 SSW 0.0
05:35 8.3 100.0 5.4 SSW 7.4 SSW 0.0
05:40 8.2 100.0 6.1 SSW 8.8 SW 0.0
05:45 8.1 100.0 5.5 SW 8.1 SW 0.0
05:50 8.2 100.0 5.1 SW 7.1 SW 0.0
05:55 8.3 100.0 5.0 SW 7.1 SSW 0.0
06:00 8.3 100.0 4.8 SW 7.8 SSW 0.0
06:05 8.4 100.0 5.9 SSW 9.2 SSW 0.0
06:10 8.3 100.0 2.9 SSW 6.4 SSW 0.0
06:15 8.3 100.0 2.0 S 4.6 S 0.0
06:20 8.4 100.0 1.9 SSW 5.3 SW 0.0
06:25 8.6 100.0 2.7 WSW 5.3 WSW 0.0
06:30 8.8 100.0 2.1 WSW 3.9 WSW 0.0
06:35 8.8 100.0 3.1 WSW 6.0 WSW 0.0
06:40 8.8 100.0 4.6 SW 8.8 S 0.0
06:45 9.0 100.0 4.2 SSW 7.8 SSW 0.0
06:50 9.0 100.0 5.0 SW 7.8 SW 0.0
06:55 9.1 100.0 3.1 WSW 4.9 W 0.0
07:00 9.3 100.0 1.8 SW 3.5 SW 0.0
07:05 9.4 100.0 2.9 WSW 4.9 W 0.0
07:10 9.5 100.0 2.3 WSW 4.6 WSW 0.0
07:15 9.6 100.0 0.8 SW 4.6 S 0.0
07:20 9.8 100.0 0.3 SSW 3.9 S 0.0
07:25 10.1 100.0 1.1 WNW 3.2 NW 0.0
07:30 10.0 100.0 0.9 NW 2.8 NW 0.0
07:35 10.0 100.0 0.9 NW 2.8 NW 0.0
07:40 10.1 100.0 0.5 NW 2.5 NW 0.0
07:45 10.2 100.0 1.2 N 4.6 NNW 0.0
07:50 10.5 100.0 1.3 NNE 4.2 NNE 0.0
07:55 10.8 100.0 2.8 NNW 5.6 NNW 0.0
08:00 11.0 100.0 2.7 NE 7.1 NE 0.0
08:05 11.1 100.0 0.2 N 3.9 WNW 0.0
08:10 11.1 100.0 3.5 WNW 5.3 W 0.0
08:15 10.8 100.0 1.9 WSW 4.9 WSW 0.0
08:20 11.3 100.0 1.2 SSW 5.6 SSW 0.0
08:25 11.5 100.0 5.6 S 9.2 SSW 0.0
08:30 11.8 98.9 4.4 S 10.2 S 0.0
08:35 12.4 94.4 2.7 SE 6.4 SE 0.0
08:40 12.4 90.8 3.3 SSE 9.2 SSW 0.0
08:45 12.5 91.8 6.5 SE 11.6 SE 0.0
08:50 13.6 89.3 6.8 SE 12.7 SE 0.0
08:55 13.9 84.0 3.2 ENE 9.2 ENE 0.0
09:00 14.5 79.6 2.5 SSE 6.7 SSW 0.0
09:05 14.6 78.8 4.5 SW 9.5 WSW 0.0
09:10 14.2 79.3 0.3 SW 3.2 NW 0.0
09:15 14.7 77.2 3.4 N 7.1 N 0.0
09:20 14.3 78.8 4.3 N 9.5 NNE 0.0
09:25 14.2 79.2 3.3 NW 7.1 NW 0.0
09:30 14.1 80.2 2.5 NW 5.3 W 0.0
09:35 14.0 78.3 2.0 NW 5.3 NW 0.0
09:40 13.9 76.7 0.4 NW 2.5 NW 0.0
09:45 13.9 76.9 0.7 NW 3.9 NW 0.0
09:50 14.3 78.7 0.2 NW 1.8 NW 0.0
09:55 15.0 76.3 1.8 SSW 6.7 SSW 0.0
10:00 15.2 77.3 3.5 SE 6.4 SE 0.0
10:05 15.1 75.9 2.1 ENE 6.0 E 0.0
10:10 15.0 75.0 1.6 NE 6.4 NE 0.0
10:15 14.7 78.4 1.4 NE 6.4 NE 0.0
10:20 14.9 80.2 0.5 NNE 6.4 NNW 0.0
10:25 15.6 79.8 5.1 NNW 7.4 NNW 0.0
10:30 16.3 73.5 0.4 NNE 3.5 NNE 0.0
10:35 16.3 72.6 1.8 N 6.0 N 0.0
10:40 16.5 72.7 0.2 NNW 2.1 N 0.0
10:45 17.1 74.3 5.6 NW 10.2 WNW 0.0
10:50 17.0 74.3 6.4 WNW 8.8 NW 0.0
10:55 17.1 73.9 6.3 W 11.3 W 0.0
11:00 17.5 71.8 5.8 W 10.9 NW 0.0
11:05 18.0 70.4 4.2 WSW 9.2 WSW 0.0
11:10 17.8 66.9 2.8 WSW 10.2 SSW 0.0
11:15 17.5 68.1 3.5 S 8.8 S 0.0
11:20 17.3 68.5 3.5 SSW 6.7 S 0.0
11:25 17.4 70.8 5.4 S 8.1 SSE 0.0
11:30 17.8 67.8 3.4 S 7.8 S 0.0
11:35 18.0 64.9 2.1 SSW 6.0 SSW 0.0
11:40 18.3 64.3 2.3 SSE 7.8 SSE 0.0
11:45 18.0 67.8 4.5 S 7.4 SSW 0.0
11:50 18.3 66.8 5.0 S 12.4 SSE 0.0
11:55 18.8 67.0 5.2 SSE 10.9 SSW 0.0
12:00 19.6 61.2 5.2 ESE 9.5 SE 0.0
12:05 19.8 60.3 7.5 SSE 13.8 SW 0.0
12:10 19.6 59.0 7.8 SSW 13.1 SW 0.0
12:15 19.2 57.2 4.5 SW 11.6 SSW 0.0
12:20 18.5 61.3 7.2 SW 11.6 W 0.0
12:25 18.0 63.1 9.1 WSW 14.1 WSW 0.1
12:30 16.6 84.8 11.0 W 18.0 W 1.6
12:35 14.7 93.3 5.4 SW 10.2 SSW 0.1
12:40 14.5 92.9 10.7 S 15.5 S 0.2
12:45 14.7 91.3 9.9 SSE 12.0 SSE 0.0
12:50 14.9 90.4 11.4 SSE 14.8 SSE 0.0
12:55 14.8 91.1 9.1 S 12.0 SSE 0.0
13:00 15.1 88.2 8.4 S 12.4 S 0.0
13:05 15.5 87.9 10.8 SSE 16.2 ESE 0.0
13:10 15.1 85.8 12.8 SE 19.4 SE 0.0
13:15 14.9 89.9 9.9 ESE 14.1 SE 0.0
13:20 14.9 90.2 9.5 SE 14.8 ESE 0.0
13:25 14.8 90.6 9.1 SE 13.1 SE 0.0
13:30 14.7 91.4 9.2 SE 13.4 SSE 0.0
13:35 14.4 92.2 12.2 SSE 16.2 SE 0.0
13:40 14.3 88.4 12.2 SSE 21.5 SSE 0.1
13:45 14.2 89.0 13.2 SE 22.2 ESE 0.1
13:50 14.9 89.7 9.8 SE 14.8 SE 0.0
13:55 15.0 84.4 6.8 SE 12.4 SE 0.0
14:00 15.3 85.5 6.3 SE 11.6 SSE 0.0
14:05 15.5 80.6 5.9 SSE 9.9 S 0.0
14:10 15.9 79.5 5.3 SSE 9.9 SE 0.0
14:15 16.7 78.0 7.4 SE 12.7 SE 0.0
14:20 17.2 74.6 5.3 SSE 11.3 SE 0.0
14:25 17.0 77.0 6.0 SE 9.2 SSE 0.0
14:30 17.4 74.3 2.7 SSE 8.8 SSE 0.0
14:35 18.2 71.3 6.1 SE 14.8 S 0.0
14:40 19.0 64.1 8.6 SSW 16.6 S 0.0
14:45 19.1 65.3 8.8 S 13.8 S 0.0
14:50 18.8 72.8 10.3 SE 14.1 SE 0.0
14:55 18.6 73.0 11.0 SE 17.6 SE 0.0
15:00 18.1 70.1 9.0 SE 14.1 SE 0.0
15:05 17.8 71.3 10.2 SSE 13.8 SE 0.0
15:10 17.5 68.8 9.2 SSE 13.4 SSW 0.0
15:15 17.4 71.3 9.4 SSE 14.5 SSE 0.0
15:20 17.2 70.5 7.2 SSE 11.3 SSE 0.0
15:25 17.0 74.3 9.5 S 14.5 S 0.0
15:30 16.7 74.8 8.7 S 12.4 SSW 0.0
15:35 16.7 74.2 9.0 S 13.4 S 0.0
15:40 16.5 73.9 10.0 S 15.2 SSE 0.0
Máxima 19.8 100.0 13.2 SE 22.2 ESE 1.6
Mínima 8.1 57.2
Total 2.4